Retour au catalogue

SHAREDSAT 2211

ActifScienceSSO
NORAD 55016·PAYLOAD·🇧🇬 Bulgaria
Ce nom de satellite n'a pas encore été confirmé par des sources officielles.

Lancé Jan 3, 2023 depuis Cape Canaveral Space Force Station

Loading…

Prochains Passages (prochaines 24 heures)

TLE

FraisSource: Space-Track

Époque: Sep 14, 2026, 15:46 UTC

1 55016U 23001H   26257.65696339  .00011389  00000-0  25512-3 0  9992
2 55016  97.3061 322.1078 0007224 136.4612 223.7208 15.43579015206019

Suivez SHAREDSAT 2211 en temps réel avec AllMySat

Download on the App Store